North Tumbulgum, Australia

12:10 PM AEST on August 19, 2017 (GMT +1000)
North Tumbulgum

Weather History for 94592 - July, 2013

Change the Weather History Date:

Sunday, July 28, 2013

  Actual Average Record
Temperature  
Mean Temperature 61 °F -  
Max Temperature 71 °F - - ()
Min Temperature 51 °F - - ()
Degree Days  
Heating Degree Days 4    
Growing Degree Days 11 (Base 50)    
Moisture  
Dew Point 55 °F    
Average Humidity 82    
Maximum Humidity 100    
Minimum Humidity 45    
Precipitation  
Precipitation 0.16 in - - ()
Sea Level Pressure  
Sea Level Pressure 30.35 in    
Wind  
Wind Speed 6 mph ()    
Max Wind Speed 16 mph    
Max Gust Speed -    
Visibility 5.7 miles    
Events      
T = Trace of Precipitation, MM = Missing Value Source: Averaged Metar Reports

Daily Weather History Graph

Daily Weather History Graph

Search for Another Location

Airport or City:

Trip Planner

Search our weather history database for the weather conditions in past years. The results will help you decide how hot, cold, wet, or windy it might be!

Date:

Astronomy

Jul. 28, 2013 Rise Set
Actual Time 6:31 AM AEST 5:14 PM AEST
Civil Twilight 6:06 AM AEST 5:39 PM AEST
Nautical Twilight 5:37 AM AEST 6:07 PM AEST
Astronomical Twilight 5:09 AM AEST 6:35 PM AEST
Moon 11:00 PM AEST (7/28) 9:54 AM AEST (7/28)
Length of Visible Light 11h 33m
Length of Day
10h 43m
Waning Gibbous, 67% of the Moon is Illuminated
Jul 28
Waning Gibbous
Jul 30
Last Quarter
Aug 7
New
Aug 14
First Quarter
Aug 21
Full

Hourly Weather History & Observations

Time (AEST) Temp. Dew Point Humidity Pressure Visibility Wind Dir Wind Speed Gust Speed Precip Events Conditions
12:00 AM 56 °F 54 °F 89% 30.38 in - South 3.5 mph - -  
12:00 AM 55.4 °F 53.6 °F 94% 30.36 in 6.2 mi South 3.5 mph - N/A   Scattered Clouds
12:30 AM 55.4 °F 53.6 °F 94% 30.36 in 6.2 mi South 3.5 mph - N/A   Mostly Cloudy
1:00 AM 57.2 °F 55.4 °F 94% 30.36 in 6.2 mi Calm Calm - N/A   Mostly Cloudy
1:30 AM 55.4 °F 53.6 °F 94% 30.36 in 6.2 mi South 3.5 mph - N/A   Mostly Cloudy
2:00 AM 55.4 °F 53.6 °F 94% 30.36 in 6.2 mi South 5.8 mph - N/A   Mostly Cloudy
2:30 AM 53.6 °F 51.8 °F 94% 30.33 in 6.2 mi SSW 4.6 mph - N/A   Scattered Clouds
3:00 AM 53 °F 51 °F 90% 30.35 in - South 5.8 mph - -  
3:00 AM 53.6 °F 51.8 °F 94% 30.33 in 6.2 mi South 5.8 mph - N/A   Unknown
3:30 AM 53.6 °F 51.8 °F 94% 30.33 in 6.2 mi Calm Calm - N/A   Unknown
4:02 AM 51.8 °F 50.0 °F 94% 30.33 in 3.7 mi SW 3.5 mph - N/A   Unknown
4:21 AM 53.6 °F 51.8 °F 94% 30.33 in 6.2 mi SW 3.5 mph - N/A   Scattered Clouds
4:30 AM 51.8 °F 50.0 °F 94% 30.33 in 6.2 mi South 3.5 mph - N/A   Mostly Cloudy
5:00 AM 53.6 °F 53.6 °F 100% 30.36 in 6.2 mi South 2.3 mph - N/A   Mostly Cloudy
5:30 AM 55.4 °F 53.6 °F 94% 30.36 in 6.2 mi South 5.8 mph - N/A   Overcast
6:00 AM 55 °F 53 °F 91% 30.38 in - South 5.8 mph - -   Overcast
6:00 AM 55.4 °F 53.6 °F 94% 30.36 in 6.2 mi South 5.8 mph - N/A   Overcast
6:30 AM 53.6 °F 51.8 °F 94% 30.36 in 6.2 mi South 5.8 mph - N/A   Mostly Cloudy
7:00 AM 55.4 °F 53.6 °F 94% 30.36 in 6.2 mi SSW 5.8 mph - N/A   Scattered Clouds
7:30 AM 59.0 °F 55.4 °F 88% 30.39 in 6.2 mi South 4.6 mph - N/A   Scattered Clouds
8:00 AM 60.8 °F 55.4 °F 82% 30.39 in 6.2 mi South 8.1 mph - N/A   Scattered Clouds
8:30 AM 64.4 °F 53.6 °F 68% 30.39 in 6.2 mi South 9.2 mph - N/A   Unknown
9:00 AM 64 °F 54 °F 61% 30.40 in - South 9.2 mph - -  
9:00 AM 64.4 °F 53.6 °F 68% 30.39 in 6.2 mi South 9.2 mph - N/A   Scattered Clouds
9:30 AM 66.2 °F 55.4 °F 68% 30.39 in 6.2 mi South 9.2 mph - N/A   Overcast
10:00 AM 68.0 °F 57.2 °F 68% 30.39 in 6.2 mi South 8.1 mph - N/A   Scattered Clouds
10:30 AM 68.0 °F 55.4 °F 64% 30.39 in 6.2 mi SSE 6.9 mph - N/A   Mostly Cloudy
11:00 AM 69.8 °F 51.8 °F 53% 30.39 in 6.2 mi ESE 12.7 mph - N/A   Overcast
11:30 AM 69.8 °F 55.4 °F 60% 30.36 in 6.2 mi ESE 10.4 mph - N/A   Overcast
12:00 PM 70 °F 53 °F 45% 30.37 in - East 16.1 mph - -   Overcast
12:00 PM 69.8 °F 53.6 °F 56% 30.36 in 6.2 mi East 16.1 mph - N/A   Overcast
12:30 PM 69.8 °F 53.6 °F 56% 30.33 in 6.2 mi East 11.5 mph - N/A   Overcast
1:00 PM 71.6 °F 53.6 °F 53% 30.33 in 6.2 mi East 10.4 mph - N/A   Overcast
1:30 PM 71.6 °F 57.2 °F 60% 30.33 in 6.2 mi East 13.8 mph - N/A   Overcast
2:00 PM 68.0 °F 53.6 °F 60% 30.33 in 6.2 mi East 15.0 mph - N/A   Overcast
2:30 PM 66.2 °F 55.4 °F 68% 30.33 in 6.2 mi SE 11.5 mph - N/A   Overcast
3:00 PM 65 °F 57 °F 69% 30.32 in - South 5.8 mph - -   Overcast
3:00 PM 64.4 °F 57.2 °F 77% 30.30 in 6.2 mi South 5.8 mph - N/A   Overcast
3:13 PM 64.4 °F 57.2 °F 77% 30.33 in 3.1 mi South 5.8 mph - N/A   Overcast
3:30 PM 64.4 °F 59.0 °F 83% 30.30 in 5.0 mi ENE 5.8 mph - N/A   Overcast
3:34 PM 62.6 °F 57.2 °F 82% 30.30 in 4.3 mi SE 6.9 mph - N/A   Overcast
4:00 PM 62.6 °F 57.2 °F 82% 30.30 in 6.2 mi SSE 9.2 mph - N/A   Overcast
4:30 PM 64.4 °F 55.4 °F 73% 30.33 in 6.2 mi ESE 16.1 mph - N/A   Overcast
4:40 PM 62.6 °F 55.4 °F 77% 30.33 in 3.7 mi SE 11.5 mph - N/A   Overcast
4:53 PM 62.6 °F 55.4 °F 77% 30.33 in 6.2 mi SSE 8.1 mph - N/A   Overcast
5:00 PM 60.8 °F 55.4 °F 82% 30.33 in 5.0 mi SSE 8.1 mph - N/A   Overcast
5:11 PM 60.8 °F 55.4 °F 82% 30.33 in 3.1 mi South 4.6 mph - N/A   Overcast
5:30 PM 60.8 °F 57.2 °F 88% 30.33 in 6.2 mi SW 4.6 mph - N/A   Overcast
5:31 PM 60.8 °F 57.2 °F 88% 30.33 in 6.2 mi SW 4.6 mph - N/A   Overcast
6:00 PM 60 °F 57 °F 86% 30.35 in - SW 8.1 mph - -   Overcast
6:00 PM 60.8 °F 57.2 °F 88% 30.33 in 6.2 mi SW 8.1 mph - N/A   Overcast
6:30 PM 59.0 °F 55.4 °F 88% 30.33 in 6.2 mi SW 3.5 mph - N/A   Mostly Cloudy
7:00 PM 59.0 °F 55.4 °F 88% 30.33 in 6.2 mi SW 4.6 mph - N/A   Scattered Clouds
7:30 PM 59.0 °F 55.4 °F 88% 30.36 in 6.2 mi SW 5.8 mph - N/A   Scattered Clouds
8:00 PM 57.2 °F 55.4 °F 94% 30.36 in 6.2 mi WSW 4.6 mph - N/A   Mostly Cloudy
8:30 PM 57.2 °F 55.4 °F 94% 30.36 in 6.2 mi South 4.6 mph - N/A   Mostly Cloudy
9:00 PM 60 °F 56 °F 82% 30.37 in - South 6.9 mph - -   Overcast
9:00 PM 59.0 °F 55.4 °F 88% 30.36 in 6.2 mi South 6.9 mph - N/A   Overcast
9:30 PM 60.8 °F 55.4 °F 82% 30.36 in 6.2 mi South 8.1 mph - N/A   Overcast
10:00 PM 59.0 °F 55.4 °F 88% 30.33 in 6.2 mi SSW 4.6 mph - N/A   Mostly Cloudy
10:30 PM 57.2 °F 55.4 °F 94% 30.33 in 6.2 mi SW 2.3 mph - N/A   Scattered Clouds
10:58 PM 59.0 °F 57.2 °F 94% 30.33 in 1.4 mi South 1.2 mph - N/A   Mostly Cloudy
11:00 PM 59.0 °F 57.2 °F 94% 30.33 in 0.7 mi South 2.3 mph - N/A   Mostly Cloudy
11:30 PM 60.8 °F 55.4 °F 82% 30.33 in 3.1 mi ENE 13.8 mph - N/A   Overcast
11:45 PM 60.8 °F 57.2 °F 88% 30.33 in 6.2 mi ENE 11.5 mph - N/A   Overcast